When you browse on this site, cookies collect data to enhance your experience and personalize the content and advertising you see.
Visit our Privacy Policy to learn more. By continuing to use the site, you agree to this use of cookies and data.

Hourly Weather Canberra

Today, 4 July, Saturday

Time Temperature Precipitation Wind Pressure Humidity
00:00 +3°C° 0.5 mm 3 mps 709 mmHg 94%
01:00 +4°C° 0.5 mm 2 mps 709 mmHg 96%
02:00 +3°C° 0.1 mm 3 mps 709 mmHg 93%
03:00 +2°C° 0.1 mm 3 mps 709 mmHg 90%
04:00 +2°C° 0 mm 3 mps 710 mmHg 89%
05:00 +1°C° 0 mm 3 mps 710 mmHg 89%
06:00 +1°C° 0 mm 2 mps 710 mmHg 90%
07:00 -1°C° 0 mm 2 mps 710 mmHg 90%
08:00 +2°C° 0 mm 2 mps 711 mmHg 85%
09:00 +4°C° 0 mm 2 mps 711 mmHg 81%
10:00 +6°C° 0 mm 2 mps 712 mmHg 76%
11:00 +7°C° 0 mm 2 mps 712 mmHg 68%
12:00 +8°C° 0 mm 2 mps 712 mmHg 60%
13:00 +10°C° 0 mm 2 mps 711 mmHg 52%
14:00 +10°C° 0 mm 2 mps 711 mmHg 54%
15:00 +10°C° 0 mm 2 mps 711 mmHg 57%
16:00 +10°C° 0 mm 2 mps 711 mmHg 59%
17:00 +8°C° 0 mm 2 mps 711 mmHg 68%
18:00 +6°C° 0 mm 2 mps 711 mmHg 77%
19:00 +4°C° 0 mm 2 mps 711 mmHg 86%
20:00 +3°C° 0 mm 2 mps 711 mmHg 88%
21:00 +3°C° 0 mm 2 mps 711 mmHg 91%
22:00 +3°C° 0 mm 2 mps 711 mmHg 93%
23:00 +3°C° 0 mm 2 mps 711 mmHg 94%

Tomorrow, 5 July, Sunday

Time Temperature Precipitation Wind Pressure Humidity
00:00 +3°C° 0 mm 2 mps 711 mmHg 95%
01:00 +3°C° 0 mm 2 mps 711 mmHg 96%
02:00 +3°C° 0 mm 2 mps 711 mmHg 96%
03:00 +3°C° 0 mm 1 mps 711 mmHg 96%
04:00 +3°C° 0 mm 1 mps 711 mmHg 96%
05:00 +3°C° 0 mm 1 mps 711 mmHg 96%
06:00 +3°C° 0 mm 1 mps 711 mmHg 96%
07:00 +2°C° 0 mm 0 mps 712 mmHg 96%
08:00 +5°C° 0 mm 1 mps 712 mmHg 89%
09:00 +7°C° 0 mm 1 mps 713 mmHg 82%
10:00 +9°C° 0 mm 1 mps 713 mmHg 75%
11:00 +10°C° 0 mm 1 mps 713 mmHg 71%
12:00 +11°C° 0 mm 1 mps 713 mmHg 66%
13:00 +12°C° 0 mm 2 mps 713 mmHg 62%
14:00 +10°C° 0 mm 2 mps 713 mmHg 66%
15:00 +10°C° 0 mm 2 mps 713 mmHg 70%
16:00 +9°C° 0 mm 2 mps 713 mmHg 74%
17:00 +8°C° 0 mm 2 mps 713 mmHg 81%
18:00 +7°C° 0 mm 1 mps 713 mmHg 88%
19:00 +4°C° 0 mm 0 mps 713 mmHg 95%
20:00 +4°C° 0 mm 0 mps 714 mmHg 95%
21:00 +3°C° 0 mm 0 mps 714 mmHg 96%
22:00 +3°C° 0 mm 0 mps 715 mmHg 96%
23:00 +2°C° 0 mm 0 mps 715 mmHg 96%

Day after tomorrow, 6 July, Monday

Time Temperature Precipitation Wind Pressure Humidity
00:00 +2°C° 0 mm 0 mps 715 mmHg 96%
01:00 +2°C° 0 mm 0 mps 715 mmHg 96%
02:00 +2°C° 0 mm 0 mps 715 mmHg 96%
03:00 +3°C° 0 mm 1 mps 714 mmHg 95%
04:00 +2°C° 0 mm 1 mps 714 mmHg 95%
05:00 +2°C° 0 mm 1 mps 715 mmHg 95%
06:00 +2°C° 0 mm 1 mps 715 mmHg 95%
07:00 +2°C° 0 mm 1 mps 716 mmHg 94%
08:00 +4°C° 0 mm 1 mps 716 mmHg 86%
09:00 +6°C° 0 mm 1 mps 717 mmHg 78%
10:00 +9°C° 0 mm 1 mps 717 mmHg 69%
11:00 +10°C° 0 mm 1 mps 717 mmHg 64%
12:00 +12°C° 0 mm 1 mps 716 mmHg 58%
13:00 +13°C° 0 mm 1 mps 716 mmHg 53%
14:00 +12°C° 0 mm 1 mps 716 mmHg 57%
15:00 +12°C° 0 mm 1 mps 716 mmHg 60%
16:00 +11°C° 0 mm 1 mps 716 mmHg 64%
17:00 +9°C° 0 mm 1 mps 716 mmHg 71%
18:00 +7°C° 0 mm 1 mps 716 mmHg 79%
19:00 +5°C° 0 mm 1 mps 716 mmHg 86%
20:00 +5°C° 0 mm 1 mps 717 mmHg 87%
21:00 +4°C° 0 mm 1 mps 717 mmHg 89%
22:00 +4°C° 0 mm 1 mps 717 mmHg 90%
23:00 +3°C° 0 mm 1 mps 717 mmHg 91%

7 July, Tuesday

Time Temperature Precipitation Wind Pressure Humidity
00:00 +3°C° 0 mm 1 mps 717 mmHg 92%
01:00 +2°C° 0 mm 1 mps 717 mmHg 93%
02:00 +2°C° 0 mm 1 mps 717 mmHg 93%
03:00 +2°C° 0 mm 1 mps 717 mmHg 93%
04:00 +2°C° 0 mm 1 mps 716 mmHg 93%
05:00 +2°C° 0 mm 1 mps 717 mmHg 93%
06:00 +2°C° 0 mm 1 mps 717 mmHg 93%
07:00 +2°C° 0 mm 1 mps 717 mmHg 92%
08:00 +4°C° 0 mm 1 mps 718 mmHg 84%
09:00 +7°C° 0 mm 1 mps 718 mmHg 75%
10:00 +8°C° 0 mm 2 mps 718 mmHg 66%
11:00 +11°C° 0 mm 1 mps 718 mmHg 62%
12:00 +12°C° 0 mm 1 mps 717 mmHg 58%
13:00 +14°C° 0 mm 1 mps 717 mmHg 54%
14:00 +13°C° 0 mm 1 mps 717 mmHg 58%
15:00 +13°C° 0 mm 1 mps 717 mmHg 62%
16:00 +12°C° 0 mm 1 mps 717 mmHg 65%
17:00 +11°C° 0 mm 1 mps 717 mmHg 69%
18:00 +9°C° 0 mm 2 mps 717 mmHg 73%
19:00 +8°C° 0 mm 2 mps 718 mmHg 77%
20:00 +8°C° 0 mm 2 mps 718 mmHg 82%
21:00 +8°C° 0 mm 1 mps 718 mmHg 86%
22:00 +8°C° 0 mm 1 mps 718 mmHg 90%
23:00 +8°C° 0 mm 1 mps 718 mmHg 91%

8 July, Wednesday

Time Temperature Precipitation Wind Pressure Humidity
00:00 +7°C° 0 mm 1 mps 718 mmHg 92%
01:00 +7°C° 0 mm 1 mps 718 mmHg 94%
02:00 +7°C° 0 mm 1 mps 717 mmHg 94%
03:00 +7°C° 0 mm 1 mps 717 mmHg 94%
04:00 +7°C° 0 mm 1 mps 717 mmHg 94%
05:00 +7°C° 0 mm 1 mps 717 mmHg 93%
06:00 +7°C° 0 mm 1 mps 718 mmHg 93%
07:00 +7°C° 0 mm 1 mps 718 mmHg 92%
08:00 +8°C° 0 mm 1 mps 718 mmHg 86%
09:00 +9°C° 0 mm 1 mps 718 mmHg 81%
10:00 +10°C° 0 mm 1 mps 718 mmHg 76%
11:00 +11°C° 0 mm 1 mps 718 mmHg 73%
12:00 +10°C° 0 mm 2 mps 718 mmHg 69%
13:00 +12°C° 0 mm 2 mps 717 mmHg 66%
14:00 +12°C° 0 mm 1 mps 717 mmHg 67%
15:00 +11°C° 0 mm 1 mps 717 mmHg 69%
16:00 +11°C° 0 mm 1 mps 716 mmHg 70%
17:00 +10°C° 0 mm 1 mps 716 mmHg 77%
18:00 +8°C° 0 mm 1 mps 717 mmHg 84%
19:00 +7°C° 0 mm 1 mps 717 mmHg 90%
20:00 +7°C° 0 mm 1 mps 717 mmHg 92%
21:00 +6°C° 0 mm 1 mps 717 mmHg 94%
22:00 +6°C° 0 mm 1 mps 717 mmHg 96%
23:00 +6°C° 0 mm 1 mps 717 mmHg 95%

9 July, Thursday

Time Temperature Precipitation Wind Pressure Humidity
00:00 +6°C° 0 mm 1 mps 717 mmHg 94%
01:00 +6°C° 0 mm 1 mps 717 mmHg 94%
02:00 +5°C° 0 mm 0 mps 717 mmHg 94%
03:00 +5°C° 0 mm 0 mps 717 mmHg 94%
04:00 +4°C° 0 mm 0 mps 716 mmHg 94%
05:00 +4°C° 0 mm 0 mps 717 mmHg 95%
06:00 +3°C° 0 mm 0 mps 717 mmHg 95%
07:00 +3°C° 0 mm 0 mps 717 mmHg 95%
08:00 +5°C° 0 mm 0 mps 717 mmHg 87%
09:00 +7°C° 0 mm 0 mps 717 mmHg 79%
10:00 +9°C° 0 mm 0 mps 718 mmHg 72%
11:00 +11°C° 0 mm 1 mps 717 mmHg 68%
12:00 +12°C° 0 mm 2 mps 716 mmHg 64%
13:00 +13°C° 0 mm 2 mps 716 mmHg 59%
14:00 +13°C° 0 mm 2 mps 716 mmHg 61%
15:00 +12°C° 0 mm 2 mps 715 mmHg 63%
16:00 +11°C° 0 mm 3 mps 715 mmHg 65%
17:00 +9°C° 0 mm 2 mps 715 mmHg 74%
18:00 +8°C° 0 mm 1 mps 715 mmHg 82%
19:00 +7°C° 0 mm 1 mps 715 mmHg 91%
20:00 +6°C° 0 mm 1 mps 715 mmHg 91%
21:00 +5°C° 0 mm 0 mps 715 mmHg 92%
22:00 +4°C° 0 mm 0 mps 715 mmHg 93%
23:00 +4°C° 0 mm 0 mps 715 mmHg 93%
Show more